Location: Arbon
(43.0005°N, 0.7472°E)
Time: 08:50:04
(UTC+00:00)

Vanguard 2 Rocket - Pass Details

Date: 05 December 2020
Orbit: 554 x 3325 km, 32.9° (Epoch: 21 January)

Event Time Altitude Azimuth Distance (km) Brightness Sun altitude
Rises 02:31:23 0° 176° (S) 5,689 - -50.4°
Exits shadow 02:31:51 - 174° (S) 5,642 10.9 -50.3°
Reaches altitude 10° 02:37:51 10° 154° (SSE) 5,264 10.8 -49.3°
Maximum altitude 02:44:51 14° 127° (SE) 5,393 11.0 -48.1°
Drops below altitude 10° 02:52:46 10° 102° (ESE) 6,121 11.6 -46.7°
Sets 03:01:33 0° 83° (E) 7,316 12.3 -45.1°
